User: anonymous   Login
Location: Newark
(43.2700°N, 11.0700°E)
Time: 19:00:21
(UTC+00:00)
Language:

ISS - Orbit

View from above orbital plane
View from above orbital plane
View from above satellite
View from above satellite

Ground track
Ground track

The orbit data is extracted from the following two-line orbital elements,

1 25544U 98067A   21266.58211281  .00001650  00000-0  38824-4 0  9996
2 25544  51.6436 216.2151 0003452  45.5832 118.4595 15.48426354303849
Epoch (UTC): 23 September 2021 13:58:14
Eccentricity: 0.0003452
inclination: 51.6436°
perigee height: 419 km
apogee height: 423 km
right ascension of ascending node: 216.2151°
argument of perigee: 45.5832°
revolutions per day: 15.48426354
mean anomaly at epoch: 118.4595°
orbit number at epoch: 30384

The dashed part of the orbit path shows where the satellite is in the earth's shadow,  

DLR